[[{"header":{"parameterUnit":"m.s-1","parameterCategory":1,"la1":30.2992,"la2":30.254,"lo1":-89.0895,"lo2":-89.0443,"dy":0.0025,"dx":0.0025,"nx":19,"ny":19,"refTime":"2026-03-14T21:00:00:Z","depth":0,"parameterNumber":2,"parameterNumberName":"U-component_of_WINDS"},"data":[0,0,0,0.8161,0.8157,0.799,0.7989,0.7804,0.7803,0,0,0,0,0,0,0,0,0,0,0,0.823,0.8229,0.8161,0.8157,0.799,0.7989,0.7805,0.7803,0,0,0,0,0,0,0,0,0,0,0,0.823,0.8229,0.8229,0.8157,0.799,0.7989,0.7805,0.792,0,0,0,0,0,0,0,0,0,0,0.8078,0.8161,0.823,0.8229,0.8156,0.799,0.7989,0.7925,0.7913,0.7894,0,0.7883,0,0.7841,0.7793,0.7792,0,0,0,0.8142,0.8172,0.8109,0.8229,0.8154,0.7991,0.8061,0.7918,0.7904,0.7878,0.788,0.7872,0.7838,0.7792,0.7791,0.7736,0.7736,0,0,0.8151,0.8209,0.8119,0.8101,0.8131,0.8067,0.8056,0.7909,0.7915,0.7879,0.7868,0.7835,0.7791,0.779,0.7735,0.7736,0,0,0,0.8188,0.8217,0.8157,0.811,0.8078,0.8062,0.805,0.7922,0.7897,0.7865,0.7832,0.779,0.7788,0.7735,0.7735,0.7817,0,0,0,0.8193,0.8238,0.8162,0.8196,0.8081,0.7998,0.8066,0.7908,0.7889,0.7833,0.779,0.7787,0.7734,0.7735,0.7814,0.7846,0,0,0,0.8234,0.8243,0.8226,0.8199,0.813,0.7999,0.7966,0.7902,0.787,0.7792,0.7786,0.7734,0.7735,0.7811,0.784,0.7849,0,0,0,0.8294,0.8298,0.8228,0.822,0.8132,0.8051,0.7966,0.7902,0.7845,0.7789,0.7734,0.7735,0.781,0.7837,0.7847,0.7868,0.7883,0,0,0.8332,0.8305,0.8295,0.8228,0.8175,0.8072,0.803,0.7921,0.7858,0.778,0.7777,0.7815,0.784,0.7849,0.7943,0.7955,0,0,0,0.8327,0.8321,0.8295,0.8245,0.8164,0.8097,0.7988,0.7948,0.7879,0.7831,0.7818,0.7831,0.7834,0.7842,0.7852,0.7851,0.7741,0.7741,0.7741,0.8464,0.8387,0.8366,0.827,0.8223,0.8112,0.8066,0.7993,0.7926,0.7925,0.7901,0.7968,0.7979,0.7986,0.7986,0.7905,0.7906,0.7906,0.7906,0.8513,0.8493,0.8408,0.8358,0.8276,0.8231,0.8126,0.8081,0.8027,0.7979,0.7977,0.7932,0.8002,0.7998,0.7911,0.7911,0.791,0.7909,0.7909,0.8594,0.8571,0.8525,0.8447,0.8395,0.8295,0.825,0.8175,0.8104,0.8103,0.807,0.8069,0.8059,0.8093,0.8093,0.8093,0.8093,0.8094,0.8094,0.8697,0.8642,0.8614,0.8531,0.849,0.8427,0.8318,0.8275,0.8209,0.8158,0.8157,0.8092,0.8024,0.8009,0.8097,0.8096,0.8096,0.8096,0.8095,0.8776,0.8747,0.8704,0.8664,0.8561,0.8515,0.8422,0.8342,0.8296,0.8276,0.821,0.8172,0.8138,0.8129,0.8117,0.8227,0.8227,0.8227,0.8227,0.8845,0.8822,0.8762,0.8704,0.8637,0.855,0.8502,0.8418,0.8325,0.8292,0.8265,0.8242,0.8236,0.8205,0.8195,0.8182,0.8306,0.8306,0.8306,0.889,0.8857,0.8832,0.8745,0.8659,0.8587,0.8541,0.8476,0.8364,0.8308,0.8264,0.8261,0.8222,0.8213,0.8156,0.8142,0.8116,0,0]},{"header":{"parameterUnit":"m.s-1","parameterCategory":1,"la1":30.2992,"la2":30.254,"lo1":-89.0895,"lo2":-89.0443,"dy":0.0025,"dx":0.0025,"nx":19,"ny":19,"refTime":"2026-03-14T21:00:00:Z","depth":0,"parameterNumber":3,"parameterNumberName":"V-component_of_WINDS"},"data":[0,0,0,6.8793,6.8798,6.9044,6.9045,6.9351,6.9353,0,0,0,0,0,0,0,0,0,0,0,6.8716,6.8718,6.8793,6.8799,6.9043,6.9045,6.935,6.9353,0,0,0,0,0,0,0,0,0,0,0,6.8715,6.8718,6.872,6.88,6.9043,6.9045,6.9349,6.9167,0,0,0,0,0,0,0,0,0,0,6.8931,6.8855,6.8717,6.872,6.8801,6.9043,6.9045,6.9159,6.9179,6.9236,0,6.9287,0,6.9325,6.9373,6.9374,0,0,0,6.8802,6.8838,6.8909,6.8721,6.8803,6.9043,6.8934,6.917,6.9192,6.9263,6.9291,6.9303,6.933,6.9375,6.9377,6.9702,6.9703,0,0,6.8789,6.8758,6.8893,6.8923,6.8885,6.8926,6.8942,6.9184,6.9212,6.9292,6.931,6.9335,6.9377,6.9379,6.9701,6.9702,0,0,0,6.8748,6.8748,6.8813,6.891,6.8955,6.8933,6.8951,6.9202,6.9225,6.9314,6.9339,6.9379,6.9383,6.9699,6.9701,6.9741,0,0,0,6.874,6.8724,6.8807,6.879,6.895,6.9081,6.8963,6.9208,6.9237,6.9337,6.9379,6.9385,6.9698,6.97,6.9737,6.9765,0,0,0,6.8702,6.872,6.8754,6.8788,6.8892,6.9078,6.9116,6.9215,6.9252,6.9374,6.9386,6.9697,6.97,6.9733,6.9758,6.9843,0,0,0,6.8653,6.8784,6.8754,6.8911,6.889,6.91,6.9115,6.9273,6.9382,6.938,6.9698,6.9701,6.9732,6.9755,6.9839,6.9909,6.9935,0,0,6.8801,6.8801,6.8896,6.8876,6.9084,6.9065,6.928,6.9408,6.9447,6.9615,6.9623,6.9738,6.9758,6.9842,7.0091,7.0111,0,0,0,6.8933,6.9001,6.9062,6.9166,6.9268,6.9359,6.9458,6.9506,6.965,6.9527,6.9791,6.9804,6.9855,6.989,6.9908,6.9954,6.9716,6.9715,6.9715,6.9099,6.9144,6.9304,6.9379,6.9479,6.9581,6.9667,6.9749,6.9763,6.9825,6.9875,7.0021,7.0061,7.0074,7.0122,6.9915,6.9915,6.9915,6.9915,6.9323,6.9427,6.9444,6.9606,6.9652,6.9789,6.9893,6.9898,7.0033,6.9986,7.0033,6.9979,7.0095,7.0139,6.9919,6.9918,6.9918,6.9917,6.9917,6.9438,6.9496,6.9553,6.9709,6.9824,6.9894,7.0023,7.006,7.0095,7.0141,7.02,7.0199,7.0205,7.0166,7.0167,7.0167,7.0168,7.0168,7.0169,6.9536,6.9599,6.9703,6.9824,6.9897,6.9997,7.0102,7.0174,7.0264,7.0281,7.0282,7.029,7.0098,7.005,7.0177,7.0175,7.0174,7.0173,7.0173,6.9748,6.9706,6.9867,6.994,7.0087,7.02,7.0245,7.039,7.0455,7.0518,7.0518,7.0369,7.0371,7.0357,7.0317,7.0506,7.0506,7.0506,7.0506,6.9846,6.9851,7.0026,7.014,7.0256,7.0314,7.0496,7.058,7.0659,7.0703,7.0681,7.0631,7.0615,7.0627,7.0607,7.0571,7.082,7.082,7.0821,6.998,6.9998,7.0146,7.0224,7.0342,7.0442,7.0615,7.0746,7.0828,7.0834,7.0738,7.0725,7.0645,7.0616,7.0621,7.059,7.0524,0,0]}]]